Wind_Speed
33 32 30 29 27 27 27 25 24 22 24 25 23 22 23 25 26 28 30 32 33 34 35 38 41 45 49 53 56 59 62 64 67 69 71 74 77 80 84 89 93 97 99 99
31 30 30 30 30 29 27 26 25 24 25 26 24 24 25 27 28 30 32 33 34 36 40 43 47 50 53 56 59 61 63 66 68 71 74 77 81 85 90 94 97 98 96 93
29 29 30 30 28 27 26 25 26 26 25 25 25 26 28 29 30 32 33 35 37 40 44 47 50 52 55 58 60 62 65 68 71 74 78 81 86 90 94 97 96 93 88 85
28 28 29 27 27 27 26 26 26 25 25 24 24 27 29 30 32 34 36 38 41 44 47 49 52 55 58 60 62 65 68 71 74 77 81 86 90 94 96 94 90 85 82 81
26 27 27 26 27 26 27 26 27 26 25 25 27 29 30 32 34 36 39 42 45 47 50 53 55 58 60 63 65 68 71 74 77 81 85 89 93 94 92 87 82 79 79 85
29 29 30 28 28 28 29 28 26 25 25 27 29 31 32 34 37 39 42 45 48 51 54 56 59 61 64 66 68 70 73 76 80 84 88 91 92 90 85 80 77 78 82 88
29 31 32 29 28 27 28 26 24 26 28 29 31 32 34 37 40 42 45 49 52 55 57 60 62 64 66 67 68 71 75 79 84 87 90 91 88 83 79 76 77 80 86 89
23 25 26 24 24 25 26 25 26 27 29 31 33 35 38 41 44 47 50 53 56 59 61 63 64 64 65 67 70 74 79 83 86 89 89 87 83 78 75 75 78 83 88 88
20 21 21 23 24 25 25 26 27 29 31 34 37 39 43 46 49 52 56 59 61 63 64 63 63 64 66 69 73 77 82 85 87 87 85 81 78 75 74 76 80 86 90 87
20 20 21 23 24 26 27 28 30 33 35 38 41 44 47 51 54 57 60 62 64 63 62 61 62 65 67 71 76 80 84 86 87 84 80 76 74 74 75 78 81 87 90 85
21 23 25 26 28 29 31 33 35 38 40 43 46 50 53 56 58 61 63 64 62 59 59 60 63 67 70 75 79 83 86 87 84 80 77 73 72 73 75 77 83 89 88 82
25 26 28 29 30 31 33 35 38 41 44 48 52 55 57 59 62 63 63 59 57 58 59 62 65 70 74 79 83 85 86 84 80 77 73 72 72 71 73 76 81 87 83 75
27 29 31 32 33 34 36 39 43 47 50 53 56 58 60 62 63 60 57 55 56 58 60 64 69 73 77 81 84 85 83 80 77 74 72 71 71 72 72 72 79 82 75 68
29 30 32 33 35 38 41 45 49 52 54 56 58 60 62 61 58 55 55 55 57 59 63 67 72 76 80 82 83 81 79 77 74 71 70 70 70 72 74 75 79 78 68 62
32 33 35 37 39 43 46 50 53 55 57 59 61 62 60 56 55 54 55 56 59 63 67 70 74 78 82 82 81 78 75 72 70 68 68 69 70 72 74 77 81 76 63 56
35 37 39 42 45 48 51 54 56 59 60 61 60 57 55 54 54 54 56 59 62 66 70 73 77 80 82 81 78 74 71 69 68 67 67 68 70 73 75 78 80 70 58 54
39 41 43 45 48 50 53 56 58 58 58 56 54 53 53 53 55 57 59 62 66 70 73 76 78 80 79 78 75 71 68 66 66 65 66 68 71 74 76 79 75 63 54 50
39 41 44 46 49 51 52 52 52 51 51 51 51 52 53 54 57 60 63 66 70 73 76 78 79 78 76 74 70 67 65 64 63 64 66 69 72 75 78 77 69 57 49 45
39 41 43 44 45 46 46 47 47 49 49 50 51 52 55 57 60 63 66 69 72 75 77 77 76 74 71 68 65 63 63 62 63 65 68 71 74 77 77 72 60 51 46 43
38 39 40 41 42 43 44 45 47 48 49 51 53 56 58 61 63 65 68 72 76 78 78 76 73 70 66 63 61 61 62 63 64 67 70 73 77 77 73 63 52 46 43 41
37 38 39 40 42 43 45 46 48 50 51 53 56 58 61 63 66 69 72 75 77 77 75 71 68 65 61 60 60 62 63 65 67 70 73 77 77 72 63 52 46 42 40 37
37 38 40 41 43 45 46 48 50 51 53 56 58 60 63 66 70 74 77 77 76 73 69 66 63 60 59 60 62 64 66 68 71 74 77 76 71 61 51 45 41 38 36 30
38 40 41 43 44 46 48 49 51 53 56 59 62 65 68 72 75 77 76 74 71 67 64 61 60 59 60 63 66 68 70 73 76 77 74 67 58 49 43 40 37 34 29 22
40 41 43 44 46 48 50 52 54 58 61 64 67 71 74 76 77 76 72 68 64 61 59 58 59 61 64 67 70 72 75 76 75 71 62 52 46 42 40 37 33 28 22 15
42 44 46 48 49 51 53 56 59 62 65 68 72 75 76 76 73 68 64 61 58 57 57 58 62 66 69 71 74 76 76 73 66 56 48 43 41 39 36 32 28 22 15 8
47 48 49 51 52 54 57 60 63 66 69 72 75 75 74 70 64 60 57 56 55 57 59 63 67 70 72 75 76 73 68 60 52 46 43 41 38 35 31 27 22 15 8 5
51 51 52 53 55 58 61 64 67 70 72 74 73 70 65 60 56 54 54 55 57 61 64 67 71 73 74 73 68 62 55 49 45 42 40 38 35 30 25 20 14 7 5 8
Wind_Direction
205 207 211 216 222 229 233 234 234 231 238 243 248 255 261 267 270 273 275 277 281 287 293 297 300 302 304 305 307 308 308 309 309 309 308 308 309 309 309 309 310 311 311 312
207 209 214 218 221 225 230 232 234 238 246 254 259 263 268 270 272 275 278 284 290 295 298 300 302 304 305 306 306 307 308 308 308 308 310 311 311 311 312 312 313 314 314 315
209 215 220 222 223 228 232 236 241 246 252 260 267 271 272 273 275 278 284 290 294 297 299 300 301 303 304 305 306 307 308 309 310 312 312 313 313 313 314 315 316 316 316 316
214 220 225 224 227 232 236 241 246 251 255 260 264 266 268 272 277 282 287 292 295 297 298 300 302 304 305 306 307 308 310 311 313 313 313 313 315 316 316 317 317 317 317 317
219 226 230 229 232 236 242 247 249 252 255 260 263 267 271 275 279 284 289 293 296 298 301 303 304 304 305 307 308 310 311 312 313 313 314 316 317 317 317 318 317 317 318 319
226 233 239 240 242 246 249 250 251 253 255 259 263 268 273 278 283 288 292 296 299 301 303 303 303 304 305 307 308 310 311 312 313 315 317 318 318 318 318 317 316 318 321 323
234 239 244 245 245 247 250 253 252 254 256 260 263 269 275 281 286 291 295 298 300 301 301 302 303 304 305 306 309 310 312 314 316 317 318 319 319 318 316 316 318 321 323 325
229 234 239 245 247 249 251 252 251 253 257 262 267 273 279 285 290 295 297 298 299 300 301 302 302 303 304 307 310 312 314 317 319 320 320 319 318 316 315 317 320 323 325 325
240 244 246 246 248 250 252 253 255 258 262 268 273 279 285 290 294 296 297 299 300 301 301 301 302 304 308 311 313 315 317 319 320 320 320 319 317 316 317 319 321 324 325 325
244 244 243 244 248 252 256 259 262 266 271 276 280 285 289 292 295 298 299 300 301 300 301 302 305 308 310 313 315 317 319 320 320 320 319 317 316 316 318 320 322 325 326 325
251 248 248 249 251 255 259 264 268 272 277 281 285 288 291 295 297 299 299 300 300 301 302 305 307 310 313 315 317 319 320 320 320 319 318 317 317 317 318 321 324 326 326 325
257 256 255 255 257 260 265 270 275 279 283 285 288 291 294 296 298 298 298 299 300 301 304 307 309 312 314 316 318 319 320 320 319 318 317 316 316 317 319 321 324 326 326 324
265 262 260 261 263 267 272 276 280 282 284 287 290 293 295 296 297 297 297 298 300 303 306 308 310 313 315 317 318 319 320 320 318 317 316 316 316 317 319 321 324 327 325 322
265 263 263 266 269 273 276 279 281 284 287 289 292 293 294 295 295 295 297 300 302 305 307 309 311 313 315 317 319 320 320 319 317 316 315 315 316 318 319 322 325 327 325 322
262 264 267 271 274 278 280 283 285 287 289 290 292 293 293 294 295 297 299 302 304 306 308 310 313 314 316 318 319 320 319 317 315 314 314 315 316 318 320 323 326 327 325 323
266 270 273 276 279 281 283 285 286 287 289 290 292 293 294 295 297 299 302 304 306 307 310 312 313 315 317 318 318 317 316 315 314 314 314 315 317 319 321 324 327 326 324 323
272 275 278 281 283 284 285 286 287 289 291 292 294 295 296 298 300 302 304 306 307 309 311 312 313 315 316 316 316 315 315 314 314 314 314 316 317 319 321 324 326 324 322 323
276 279 281 282 283 285 287 289 292 294 295 296 297 298 300 302 304 305 306 307 308 309 311 312 314 315 315 314 314 314 314 313 313 314 315 316 318 319 321 324 324 322 321 322
278 280 282 283 286 288 291 293 295 295 297 298 300 301 303 304 305 306 306 307 307 309 311 312 313 313 313 313 313 313 312 313 313 315 316 317 318 319 321 322 322 321 320 321
279 281 283 285 287 290 292 294 296 297 299 301 302 303 303 304 304 305 305 306 308 310 311 311 311 311 312 312 312 312 312 313 314 315 316 316 317 319 320 321 320 319 319 320
278 281 283 286 289 291 293 295 298 299 301 302 302 303 303 304 305 305 306 307 309 310 310 310 310 311 311 312 312 312 313 314 315 315 316 316 317 318 319 319 319 319 319 320
280 281 283 285 288 291 294 297 299 301 302 303 304 305 305 305 305 306 307 308 309 309 309 309 310 310 311 312 313 313 314 314 315 315 316 316 317 317 318 318 318 318 319 320
282 284 286 289 292 295 298 300 302 304 305 306 307 307 306 306 307 308 308 308 308 308 309 310 310 311 312 313 313 314 314 315 315 315 316 316 316 317 317 318 318 318 318 315
289 291 293 295 298 299 301 303 305 307 308 308 308 308 308 308 307 307 307 307 307 309 310 311 311 312 313 313 314 314 314 314 315 316 316 316 316 317 317 317 317 316 314 306
292 293 295 297 299 300 303 305 307 308 308 308 307 308 308 307 306 306 306 307 308 309 310 311 312 313 313 313 313 314 314 315 316 316 316 317 317 317 317 317 316 314 306 287
293 294 296 297 299 301 303 305 307 307 307 307 307 307 307 306 305 306 307 308 309 311 312 313 313 313 313 313 313 314 315 316 317 317 317 317 318 318 317 316 314 307 287 231
294 295 295 296 298 300 302 304 306 306 307 307 307 306 305 305 305 307 308 310 311 312 313 313 314 314 313 313 314 316 317 317 316 316 316 317 317 317 316 314 309 286 222 180
Height
5685 5691 5697 5701 5705 5708 5711 5714 5716 5719 5720 5721 5723 5725 5726 5726 5726 5725 5723 5721 5719 5717 5714 5711 5707 5703 5698 5692 5686 5680 5673 5666 5658 5649 5641 5632 5622 5612 5601 5589 5575 5561 5546 5531
5683 5688 5692 5696 5700 5703 5706 5708 5711 5713 5715 5716 5718 5719 5719 5719 5718 5717 5715 5714 5712 5709 5706 5702 5697 5693 5687 5680 5674 5666 5659 5651 5643 5635 5625 5615 5604 5593 5581 5567 5551 5536 5521 5506
5681 5685 5688 5692 5696 5699 5702 5704 5706 5708 5711 5711 5712 5712 5711 5711 5710 5709 5708 5707 5704 5701 5696 5692 5687 5681 5674 5667 5660 5652 5645 5636 5628 5618 5607 5596 5584 5571 5558 5544 5529 5514 5499 5484
5678 5682 5685 5692 5693 5695 5698 5700 5702 5704 5705 5705 5705 5704 5704 5704 5703 5702 5701 5698 5694 5690 5686 5680 5674 5668 5661 5654 5646 5638 5629 5620 5611 5601 5590 5577 5563 5548 5535 5521 5507 5493 5480 5466
5675 5678 5682 5687 5689 5692 5694 5696 5697 5698 5699 5698 5698 5697 5697 5697 5696 5694 5691 5688 5684 5679 5674 5668 5661 5654 5647 5640 5631 5622 5613 5604 5594 5583 5571 5556 5541 5527 5514 5501 5488 5475 5462 5447
5673 5675 5678 5684 5686 5686 5688 5689 5691 5692 5692 5692 5692 5691 5690 5689 5687 5684 5681 5678 5673 5667 5661 5655 5648 5641 5634 5626 5617 5607 5598 5588 5576 5564 5550 5535 5521 5507 5494 5482 5470 5458 5445 5428
5669 5671 5674 5678 5679 5680 5682 5685 5685 5685 5685 5685 5685 5684 5683 5681 5679 5675 5671 5666 5661 5655 5649 5642 5635 5628 5620 5612 5603 5593 5582 5570 5557 5543 5529 5516 5502 5489 5476 5465 5454 5441 5428 5414
5665 5666 5670 5672 5673 5674 5676 5676 5677 5677 5678 5678 5677 5676 5675 5672 5669 5664 5659 5654 5649 5642 5636 5629 5621 5614 5606 5598 5588 5577 5565 5552 5538 5524 5510 5497 5484 5472 5460 5447 5435 5422 5410 5398
5661 5664 5665 5666 5667 5668 5669 5670 5670 5671 5671 5670 5669 5667 5664 5661 5657 5652 5646 5641 5634 5628 5621 5613 5606 5598 5590 5581 5570 5558 5546 5532 5520 5507 5493 5479 5467 5455 5444 5431 5418 5405 5392 5380
5656 5657 5658 5660 5661 5662 5662 5663 5663 5663 5663 5661 5659 5656 5653 5649 5644 5638 5632 5626 5619 5612 5605 5598 5591 5583 5574 5565 5553 5541 5529 5516 5504 5491 5479 5465 5452 5440 5428 5416 5403 5390 5375 5363
5650 5651 5652 5654 5654 5655 5655 5655 5655 5654 5652 5650 5647 5644 5640 5635 5629 5623 5617 5611 5604 5596 5590 5583 5575 5566 5557 5547 5536 5524 5512 5500 5487 5474 5462 5451 5440 5427 5415 5404 5387 5372 5359 5345
5643 5645 5645 5646 5646 5647 5646 5645 5644 5643 5640 5638 5634 5630 5626 5621 5615 5609 5602 5595 5589 5582 5575 5567 5558 5549 5539 5529 5519 5508 5497 5484 5470 5458 5447 5436 5427 5419 5406 5392 5380 5362 5345 5331
5634 5635 5636 5637 5637 5637 5636 5635 5633 5631 5628 5625 5621 5617 5612 5607 5600 5594 5587 5581 5574 5567 5559 5551 5541 5532 5522 5513 5502 5490 5478 5465 5454 5442 5432 5422 5412 5403 5396 5386 5371 5353 5336 5322
5625 5626 5626 5627 5627 5626 5625 5623 5621 5618 5615 5612 5608 5603 5597 5591 5585 5579 5572 5566 5559 5551 5543 5535 5525 5515 5506 5496 5484 5471 5458 5447 5437 5427 5418 5408 5398 5388 5377 5367 5358 5344 5328 5313
5616 5617 5617 5616 5616 5614 5613 5611 5608 5605 5601 5597 5593 5587 5581 5575 5570 5564 5557 5550 5543 5536 5527 5519 5509 5499 5488 5476 5464 5452 5441 5432 5423 5414 5404 5394 5384 5374 5363 5352 5340 5328 5316 5305
5607 5607 5606 5606 5605 5603 5601 5598 5595 5591 5587 5582 5577 5572 5566 5561 5555 5549 5543 5536 5528 5520 5511 5502 5492 5481 5469 5458 5448 5437 5427 5417 5408 5400 5391 5381 5370 5360 5349 5338 5326 5314 5303 5293
5597 5597 5596 5595 5593 5591 5588 5584 5581 5577 5572 5567 5563 5558 5553 5547 5541 5535 5528 5520 5512 5503 5494 5485 5475 5463 5452 5441 5432 5422 5412 5404 5395 5386 5376 5366 5356 5345 5335 5324 5313 5302 5292 5283
5587 5586 5585 5583 5581 5577 5574 5570 5567 5562 5558 5554 5550 5545 5539 5533 5527 5520 5512 5504 5496 5487 5477 5467 5456 5445 5434 5424 5416 5406 5398 5390 5381 5372 5363 5353 5342 5332 5321 5311 5300 5290 5282 5274
5576 5574 5572 5569 5567 5564 5561 5558 5554 5550 5546 5541 5536 5531 5525 5519 5512 5505 5497 5488 5479 5472 5460 5448 5437 5427 5417 5408 5400 5392 5384 5376 5368 5358 5348 5339 5329 5318 5307 5297 5287 5279 5272 5265
5562 5560 5558 5556 5554 5551 5548 5545 5541 5537 5532 5528 5522 5517 5511 5504 5497 5490 5481 5471 5461 5453 5443 5431 5421 5411 5403 5394 5386 5378 5370 5362 5353 5344 5335 5325 5315 5304 5293 5283 5275 5268 5262 5256
5550 5548 5546 5544 5541 5539 5535 5532 5528 5524 5519 5514 5508 5502 5495 5488 5481 5473 5464 5455 5443 5433 5423 5412 5403 5395 5388 5380 5373 5364 5356 5347 5338 5329 5319 5309 5299 5289 5279 5271 5264 5258 5253 5247
5539 5537 5535 5532 5530 5526 5522 5518 5514 5509 5504 5499 5493 5486 5479 5471 5463 5455 5445 5436 5426 5415 5406 5397 5388 5381 5373 5366 5358 5350 5341 5332 5323 5313 5303 5292 5282 5273 5266 5260 5254 5249 5244 5239
5527 5525 5522 5520 5516 5512 5508 5504 5500 5495 5489 5483 5477 5470 5463 5454 5445 5436 5427 5416 5406 5398 5390 5382 5374 5367 5359 5352 5343 5334 5325 5316 5306 5296 5286 5276 5267 5260 5255 5250 5245 5240 5236 5233
5513 5511 5508 5505 5502 5498 5494 5489 5484 5479 5473 5466 5460 5452 5444 5435 5426 5416 5407 5398 5390 5383 5376 5368 5360 5353 5345 5336 5327 5318 5309 5299 5289 5279 5270 5262 5255 5250 5245 5240 5236 5232 5230 5228
5499 5497 5494 5491 5487 5483 5478 5473 5468 5462 5455 5449 5441 5433 5425 5416 5407 5398 5390 5383 5376 5370 5363 5355 5346 5338 5329 5320 5310 5301 5291 5281 5271 5263 5256 5250 5245 5240 5236 5231 5228 5226 5224 5225
5485 5482 5479 5475 5471 5467 5462 5457 5452 5445 5438 5431 5423 5414 5406 5397 5390 5383 5376 5369 5363 5356 5348 5340 5332 5322 5313 5303 5293 5283 5273 5265 5257 5250 5245 5240 5235 5231 5227 5224 5221 5220 5220 5222
5470 5467 5464 5460 5456 5451 5446 5441 5435 5428 5420 5412 5404 5395 5388 5381 5375 5369 5362 5356 5349 5341 5333 5324 5315 5305 5295 5285 5275 5267 5259 5251 5245 5239 5235 5230 5226 5222 5219 5217 5216 5216 5218 5220